Location: Csohesd
(46.2500°N, 22.6167°E)
Time: 20:05:34
(UTC+00:00)

SL-19 R/B - Pass Details

Date: 01 June 2022
Orbit: 874 x 1208 km, 100.6° (Epoch: 02 July)

Event Time Altitude Azimuth Distance (km) Brightness Sun altitude
Rises 20:28:57 0° 5° (N) 4,012 8.7 -16.5°
Reaches altitude 10° 20:34:03 10° 332° (NNW) 3,108 8.5 -16.9°
Maximum altitude 20:35:43 11° 319° (NW) 3,051 8.3 -17.1°
Drops below altitude 10° 20:37:23 10° 305° (NW) 3,134 8.1 -17.2°
Sets 20:42:39 0° 273° (W) 4,118 8.2 -17.6°
